| time (UTC) | temp C | wind direction | speed KPH | gust KPH | rain 1hr cm | rain 24hr cm | rain mn cm | humidity % | barometer mb |
| 20260906100034 | 24 | 30 | 0.0 | 0.0 | 0.00 | 0.00 | 0.00 | 87 | 1011.4 |
| 20260906094534 | 24 | 30 | 0.0 | 0.0 | 0.00 | 0.00 | 0.00 | 88 | 1011.3 |
| 20260906093032 | 24 | 74 | 0.0 | 0.0 | 0.00 | 0.00 | 0.00 | 88 | 1011.0 |
| 20260906091534 | 24 | 74 | 0.0 | 0.0 | 0.00 | 0.00 | 0.00 | 88 | 1011.0 |
| 20260906090028 | 25 | 128 | 0.0 | 0.0 | 0.00 | 0.00 | 0.00 | 87 | 1010.8 |
| 20260906084533 | 25 | 128 | 0.0 | 0.0 | 0.00 | 0.00 | 0.00 | 86 | 1010.9 |
| 20260906083027 | 25 | 128 | 0.0 | 0.0 | 0.00 | 0.00 | 0.00 | 85 | 1010.9 |
| 20260906081534 | 25 | 128 | 0.0 | 0.0 | 0.00 | 0.00 | 0.00 | 85 | 1010.9 |
| 20260906080026 | 25 | 155 | 0.0 | 0.0 | 0.00 | 0.00 | 0.00 | 86 | 1010.9 |
| 20260906074526 | 25 | 155 | 0.0 | 0.0 | 0.00 | 0.00 | 0.00 | 86 | 1010.8 |
| 20260906073023 | 25 | 155 | 0.0 | 0.0 | 0.00 | 0.00 | 0.00 | 87 | 1010.7 |
| 20260906071520 | 25 | 155 | 0.0 | 0.0 | 0.00 | 0.00 | 0.00 | 87 | 1010.7 |
| 20260906070019 | 25 | 155 | 0.0 | 0.0 | 0.00 | 0.00 | 0.00 | 88 | 1010.9 |
| 20260906064524 | 25 | 155 | 0.0 | 0.0 | 0.00 | 0.00 | 0.00 | 88 | 1011.0 |
| 20260906063016 | 26 | 155 | 0.0 | 0.0 | 0.00 | 0.00 | 0.00 | 88 | 1011.0 |
| 20260906061515 | 26 | 155 | 0.0 | 0.0 | 0.00 | 0.00 | 0.00 | 88 | 1011.3 |
| 20260906060012 | 26 | 155 | 0.0 | 0.0 | 0.00 | 0.00 | 0.00 | 88 | 1011.1 |
| 20260906054510 | 26 | 155 | 0.0 | 0.0 | 0.00 | 0.00 | 0.00 | 87 | 1010.9 |
| 20260906053008 | 26 | 155 | 0.0 | 0.0 | 0.00 | 0.00 | 0.00 | 86 | 1010.9 |
| 20260906051508 | 26 | 155 | 0.0 | 0.0 | 0.00 | 0.00 | 0.00 | 86 | 1010.8 |
| 20260906050012 | 26 | 155 | 0.0 | 0.0 | 0.00 | 0.00 | 0.00 | 86 | 1011.0 |
| 20260906044506 | 26 | 155 | 0.0 | 0.0 | 0.00 | 0.00 | 0.00 | 86 | 1011.0 |
| 20260906043007 | 26 | 76 | 0.0 | 0.0 | 0.00 | 0.00 | 0.00 | 85 | 1010.8 |
| 20260906041503 | 26 | 134 | 0.0 | 0.0 | 0.00 | 0.00 | 0.00 | 84 | 1010.4 |
| 20260906040059 | 26 | 134 | 0.0 | 0.0 | 0.00 | 0.00 | 0.00 | 82 | 1010.4 |
| 20260906034601 | 27 | 134 | 0.0 | 0.0 | 0.00 | 0.00 | 0.00 | 79 | 1010.4 |
| 20260906033058 | 27 | 134 | 0.0 | 0.0 | 0.00 | 0.00 | 0.00 | 78 | 1010.4 |
| 20260906031622 | 27 | 134 | 0.0 | 0.0 | 0.00 | 0.00 | 0.00 | 77 | 1010.5 |
| 20260906030058 | 27 | 134 | 0.0 | 0.0 | 0.00 | 0.00 | 0.00 | 75 | 1010.5 |
| 20260906024559 | 27 | 134 | 0.0 | 0.0 | 0.00 | 0.00 | 0.00 | 75 | 1010.5 |
| 20260906023109 | 28 | 134 | 0.0 | 0.0 | 0.00 | 0.00 | 0.00 | 74 | 1010.5 |
| 20260906021556 | 28 | 134 | 0.0 | 0.0 | 0.00 | 0.00 | 0.00 | 72 | 1010.4 |
| 20260906020100 | 28 | 134 | 0.0 | 0.0 | 0.00 | 0.00 | 0.00 | 69 | 1010.1 |
| 20260906014555 | 29 | 134 | 0.0 | 0.0 | 0.00 | 0.00 | 0.00 | 70 | 1009.9 |
| 20260906013055 | 30 | 134 | 0.0 | 0.0 | 0.00 | 0.00 | 0.00 | 67 | 1009.6 |
| 20260906011603 | 30 | 134 | 0.0 | 0.0 | 0.00 | 0.00 | 0.00 | 66 | 1009.6 |
| 20260906010054 | 31 | 134 | 0.0 | 0.0 | 0.00 | 0.00 | 0.00 | 65 | 1009.2 |
| 20260906004559 | 31 | 134 | 0.0 | 0.0 | 0.00 | 0.00 | 0.00 | 65 | 1009.1 |
| 20260906003053 | 31 | 134 | 0.0 | 0.0 | 0.00 | 0.00 | 0.00 | 64 | 1009.2 |
| 20260906001553 | 32 | 111 | 0.0 | 4.8 | 0.00 | 0.00 | 0.00 | 62 | 1009.7 |
| 20260906000059 | 32 | 351 | 0.0 | 0.0 | 0.00 | 0.00 | 0.00 | 62 | 1009.7 |
| 20260905234554 | 32 | 351 | 0.0 | 0.0 | 0.00 | 0.00 | 0.00 | 60 | 1009.9 |
| 20260905233054 | 33 | 351 | 0.0 | 0.0 | 0.00 | 0.00 | 0.00 | 59 | 1009.8 |
| 20260905231551 | 33 | 351 | 0.0 | 0.0 | 0.00 | 0.00 | 0.00 | 58 | 1009.9 |
| 20260905230050 | 33 | 351 | 0.0 | 8.0 | 0.00 | 0.00 | 0.00 | 55 | 1009.5 |
| 20260905224550 | 34 | 356 | 0.0 | 1.6 | 0.00 | 0.00 | 0.00 | 53 | 1009.4 |
| 20260905223048 | 34 | 347 | 0.0 | 8.0 | 0.00 | 0.00 | 0.00 | 52 | 1009.1 |
| 20260905221601 | 35 | 346 | 0.0 | 4.8 | 0.00 | 0.00 | 0.00 | 54 | 1009.2 |
| 20260905220048 | 35 | 335 | 0.0 | 1.6 | 0.00 | 0.00 | 0.00 | 54 | 1009.2 |
| 20260905214548 | 35 | 347 | 1.6 | 8.0 | 0.00 | 0.00 | 0.00 | 54 | 1009.5 |
| 20260905213045 | 35 | 351 | 0.0 | 1.6 | 0.00 | 0.00 | 0.00 | 55 | 1009.4 |
| 20260905211546 | 35 | 1 | 1.6 | 6.4 | 0.00 | 0.00 | 0.00 | 55 | 1009.4 |
| 20260905210046 | 35 | 339 | 0.0 | 3.2 | 0.00 | 0.00 | 0.00 | 53 | 1009.5 |
| 20260905204543 | 35 | 344 | 0.0 | 8.0 | 0.00 | 0.00 | 0.00 | 53 | 1009.7 |
| 20260905203039 | 35 | 9 | 0.0 | 4.8 | 0.00 | 0.00 | 0.00 | 53 | 1010.1 |
| 20260905201537 | 35 | 345 | 0.0 | 3.2 | 0.00 | 0.00 | 0.00 | 53 | 1010.2 |
| 20260905200037 | 35 | 351 | 0.0 | 6.4 | 0.00 | 0.00 | 0.00 | 52 | 1010.4 |
| 20260905194530 | 35 | 70 | 0.0 | 3.2 | 0.00 | 0.00 | 0.00 | 52 | 1010.5 |
| 20260905193027 | 35 | 351 | 0.0 | 8.0 | 0.00 | 0.00 | 0.00 | 52 | 1010.8 |
| 20260905191527 | 35 | 46 | 0.0 | 0.0 | 0.00 | 0.00 | 0.00 | 53 | 1010.9 |
| 20260905190029 | 35 | 342 | 0.0 | 6.4 | 0.00 | 0.00 | 0.00 | 53 | 1011.2 |
| 20260905184520 | 35 | 129 | 0.0 | 4.8 | 0.00 | 0.00 | 0.00 | 54 | 1011.4 |
| 20260905183019 | 35 | 119 | 0.0 | 4.8 | 0.00 | 0.00 | 0.00 | 54 | 1011.7 |
| 20260905181517 | 34 | 102 | 0.0 | 4.8 | 0.00 | 0.00 | 0.00 | 54 | 1011.8 |
| 20260905180018 | 34 | 237 | 0.0 | 1.6 | 0.00 | 0.00 | 0.00 | 52 | 1011.9 |
| 20260905174513 | 33 | 319 | 0.0 | 1.6 | 0.00 | 0.00 | 0.00 | 54 | 1012.0 |
| 20260905173008 | 33 | 94 | 3.2 | 8.0 | 0.00 | 0.00 | 0.00 | 55 | 1012.1 |
| 20260905171504 | 32 | 102 | 0.0 | 9.7 | 0.00 | 0.00 | 0.00 | 58 | 1012.3 |
| 20260905170004 | 32 | 130 | 0.0 | 9.7 | 0.00 | 0.00 | 0.00 | 59 | 1012.5 |
| 20260905164606 | 32 | 119 | 0.0 | 14.5 | 0.00 | 0.00 | 0.00 | 60 | 1012.9 |
| 20260905163056 | 31 | 103 | 1.6 | 3.2 | 0.00 | 0.00 | 0.00 | 62 | 1013.2 |
| 20260905161551 | 31 | 138 | 0.0 | 9.7 | 0.00 | 0.00 | 0.00 | 64 | 1013.2 |
| 20260905160055 | 30 | 113 | 1.6 | 9.7 | 0.00 | 0.00 | 0.00 | 65 | 1013.2 |
| 20260905154550 | 30 | 136 | 1.6 | 12.9 | 0.00 | 0.00 | 0.00 | 67 | 1013.3 |
| 20260905153043 | 30 | 153 | 1.6 | 8.0 | 0.00 | 0.00 | 0.00 | 65 | 1013.3 |
| 20260905151539 | 29 | 151 | 0.0 | 8.0 | 0.00 | 0.00 | 0.00 | 68 | 1013.4 |
| 20260905150035 | 28 | 113 | 0.0 | 6.4 | 0.00 | 0.00 | 0.00 | 72 | 1013.5 |
| 20260905144531 | 27 | 136 | 0.0 | 6.4 | 0.00 | 0.00 | 0.00 | 76 | 1013.7 |
| 20260905143029 | 27 | 283 | 0.0 | 11.3 | 0.00 | 0.00 | 0.00 | 79 | 1013.7 |
| 20260905141525 | 26 | 158 | 0.0 | 8.0 | 0.00 | 0.00 | 0.00 | 82 | 1013.9 |
| 20260905140022 | 25 | 177 | 0.0 | 8.0 | 0.00 | 0.00 | 0.00 | 87 | 1013.9 |
| 20260905134517 | 25 | 137 | 0.0 | 0.0 | 0.00 | 0.00 | 0.00 | 88 | 1014.2 |
| 20260905133023 | 25 | 136 | 0.0 | 9.7 | 0.00 | 0.00 | 0.00 | 87 | 1014.3 |
| 20260905131515 | 26 | 7 | 0.0 | 3.2 | 0.00 | 0.00 | 0.00 | 85 | 1014.5 |
| 20260905130013 | 26 | 7 | 0.0 | 4.8 | 0.00 | 0.00 | 0.00 | 84 | 1014.6 |
| 20260905124511 | 26 | 127 | 0.0 | 0.0 | 0.00 | 0.00 | 0.00 | 86 | 1013.5 |
| 20260905123009 | 25 | 128 | 0.0 | 1.6 | 0.00 | 0.00 | 0.00 | 88 | 1013.4 |
| 20260905121506 | 25 | 356 | 0.0 | 0.0 | 0.00 | 0.00 | 0.00 | 91 | 1013.1 |
| 20260905120007 | 25 | 356 | 0.0 | 0.0 | 0.00 | 0.00 | 0.00 | 91 | 1013.4 |
| 20260905114610 | 25 | 356 | 0.0 | 0.0 | 0.00 | 0.00 | 0.00 | 92 | 1013.0 |
| 20260905113100 | 25 | 346 | 0.0 | 0.0 | 0.00 | 0.00 | 0.00 | 92 | 1012.9 |
| 20260905111651 | 25 | 346 | 0.0 | 3.2 | 0.00 | 0.00 | 0.00 | 93 | 1012.6 |
| 20260905110056 | 25 | 351 | 0.0 | 0.0 | 0.00 | 0.00 | 0.00 | 93 | 1012.1 |
| 20260905104555 | 25 | 351 | 0.0 | 0.0 | 0.00 | 0.00 | 0.00 | 92 | 1011.8 |
| 20260905103101 | 25 | 351 | 0.0 | 0.0 | 0.00 | 0.00 | 0.00 | 92 | 1011.7 |
| 20260905101552 | 25 | 351 | 0.0 | 0.0 | 0.00 | 0.00 | 0.00 | 92 | 1011.9 |